GLOBALSTAR M036 [-]

Last updated on July 6, 2021, 3:36 p.m. UTC

1 25623U 99004C   21187.04873009 -.00000230  00000-0 -21474-2 0  9997
2 25623  51.9980  81.2488 0010361 168.7673 299.8713 11.86575882  7762
UTC
Height (km)
Latitude
Longitude
Inclination
Orbital Period
UTC large
Height (km)
Speed (km/s)
/
Latitude / Longitude
Inclination (degrees)
Orbital Period (minutes)
Azimuth
Elevation
Range (km)
Doppler Factor
iOS Compass Heading
iOS Angle